Location: Seattle
(47.6060°N, 122.3310°W)
Time: 10:41:27
(UTC-08:00)

ISS - Visible Passes

Search period start: 21 January 2021 00:00
Search period end: 31 January 2021 00:00
Orbit: 418 x 421 km, 51.6° (Epoch: 21 January)

Date Brightness Start Highest point End Pass type
(mag) Time Alt. Az. Time Alt. Az. Time Alt. Az.
21 Jan -3.2 18:12:36 10° SW 18:15:50 44° SSE 18:17:19 26° E visible
21 Jan -0.8 19:49:20 10° W 19:50:18 17° W 19:50:18 17° W visible
22 Jan -2.5 17:25:37 10° SSW 17:28:35 29° SE 17:31:35 10° E visible
22 Jan -3.4 19:01:53 10° WSW 19:04:59 61° NW 19:04:59 61° NW visible
23 Jan -3.8 18:14:28 10° WSW 18:17:51 87° NNW 18:19:36 26° ENE visible
23 Jan -0.8 19:51:41 10° WNW 19:52:35 16° WNW 19:52:35 16° WNW visible
24 Jan -3.6 17:27:08 10° SW 17:30:28 67° SSE 17:33:51 10° ENE visible
24 Jan -2.9 19:04:11 10° W 19:07:10 43° NNW 19:07:10 43° NNW visible
25 Jan -3.3 18:16:39 10° W 18:19:58 51° NNW 18:21:44 24° NE visible
25 Jan -0.7 19:53:56 10° WNW 19:54:42 15° WNW 19:54:42 15° WNW visible
26 Jan -2.7 19:06:27 10° WNW 19:09:14 37° NNW 19:09:14 37° NNW visible
27 Jan -3.0 18:18:55 10° WNW 18:22:09 40° N 18:23:47 23° NE visible
27 Jan -0.8 19:55:59 10° WNW 19:56:45 16° WNW 19:56:45 16° WNW visible
28 Jan -3.1 17:31:21 10° W 17:34:37 44° N 17:37:53 10° ENE visible
28 Jan -2.9 19:08:33 10° WNW 19:11:17 42° NNW 19:11:17 42° NNW visible
29 Jan -3.1 18:21:03 10° WNW 18:24:18 41° N 18:25:52 25° ENE visible
29 Jan -0.8 19:57:57 10° WNW 19:58:50 17° WNW 19:58:50 17° WNW visible
30 Jan -3.4 19:10:29 10° WNW 19:13:26 61° NW 19:13:26 61° NW visible
